This is the latest recevied weather packets stored in our database for station/object NK7E-2. If no packets are shown the sender has not sent any weather packets the latest 10 day(s).
| Time | Temp. | Humidity | Pressure | Rain* | Wind** | Luminosity | Snow |
|---|---|---|---|---|---|---|---|
| 1787690717 | 40° C | 16% | 1029.1 hPa | 0 mm | - | - | - |
| 1787690117 | 40° C | 17% | 1029.3 hPa | 0 mm | - | - | - |
| 1787689517 | 39.44° C | 17% | 1029.6 hPa | 0 mm | - | - | - |
| 1787688917 | 40° C | 18% | 1029.6 hPa | 0 mm | - | - | - |
| 1787688317 | 39.44° C | 18% | 1029.7 hPa | 0 mm | - | - | - |
| 1787687717 | 38.89° C | 19% | 1030 hPa | 0 mm | - | - | - |
| 1787687117 | 38.89° C | 19% | 1030 hPa | 0 mm | - | - | - |
| 1787686517 | 38.33° C | 19% | 1029.9 hPa | 0 mm | - | - | - |
| 1787685917 | 37.78° C | 20% | 1030 hPa | 0 mm | - | - | - |
| 1787685316 | 38.33° C | 20% | 1030.3 hPa | 0 mm | - | - | - |
| 1787684717 | 37.78° C | 20% | 1030.3 hPa | 0 mm | - | - | - |
| 1787684116 | 38.33° C | 20% | 1030.4 hPa | 0 mm | - | - | - |
| 1787683516 | 37.22° C | 20% | 1030.6 hPa | 0 mm | - | - | - |
| 1787682916 | 37.22° C | 21% | 1030.9 hPa | 0 mm | - | - | - |
| 1787682316 | 37.22° C | 21% | 1031.2 hPa | 0 mm | - | - | - |
| 1787681716 | 36.67° C | 21% | 1031.4 hPa | 0 mm | - | - | - |
| 1787681116 | 36.67° C | 22% | 1031.4 hPa | 0 mm | - | - | - |
| 1787680516 | 36.67° C | 23% | 1031.4 hPa | 0 mm | - | - | - |
| 1787679916 | 36.11° C | 24% | 1031.4 hPa | 0 mm | - | - | - |
| 1787679316 | 35° C | 25% | 1031.4 hPa | 0 mm | - | - | - |
| 1787678716 | 35° C | 25% | 1031.4 hPa | 0 mm | - | - | - |
| 1787678116 | 35° C | 26% | 1031.5 hPa | 0 mm | - | - | - |
| 1787677516 | 34.44° C | 27% | 1031 hPa | 0 mm | - | - | - |
| 1787676916 | 33.89° C | 28% | 1030.8 hPa | 0 mm | - | - | - |
| 1787676316 | 33.89° C | 29% | 1030.8 hPa | 0 mm | - | - | - |
* Rain latest hour (hover to see other rain measurements)
** Current wind speed in m/s (hover to see current wind gust speed)